User: anonymous   Login
Location: San Francisco
(37.7750°N, 122.4180°W)
Time: 10:54:53
(UTC-07:00)
Language:

GP-B - Orbit

View from above orbital plane
View from above orbital plane
View from above satellite
View from above satellite

Ground track
Ground track

The orbit data is extracted from the following two-line orbital elements,

1 28230U 04014A   15242.88721079  .00000303  00000-0  39557-4 0  9999
2 28230 089.8743 133.5376 0002690 072.9638 287.1879 14.78224417612131
Epoch (UTC): 30 August 2015 21:17:35
Eccentricity: 0.0002690
inclination: 89.8743°
perigee height: 633 km
apogee height: 637 km
right ascension of ascending node: 133.5376°
argument of perigee: 72.9638°
revolutions per day: 14.78224417
mean anomaly at epoch: 287.1879°
orbit number at epoch: 61213

The dashed part of the orbit path shows where the satellite is in the earth's shadow,  

DLR